GEFSNE_500_meanwind_096.txt.gz
Wind_Speed
42 43 44 44 43 43 42 41 41 40 40 40 40 40 39 39 39 40 39 37 35 34 33 31 30 29 28 26 25 24 23 22 21 20 20 20 19 20
42 43 44 45 45 44 44 43 42 43 42 41 41 41 41 41 42 41 40 39 38 36 35 34 32 31 29 27 26 25 24 22 21 20 20 19 19 19
44 44 45 46 46 45 45 45 44 43 43 43 44 43 43 43 43 43 42 41 40 38 37 36 34 32 31 29 28 26 24 23 21 20 20 19 18 18
45 45 46 47 46 46 46 46 45 45 45 45 45 45 46 45 45 45 43 43 42 40 40 38 36 35 33 31 30 28 26 25 23 21 20 20 19 18
45 45 46 47 47 47 47 47 47 47 47 46 45 46 46 47 47 47 45 45 44 43 42 41 39 37 35 34 32 30 28 26 25 23 21 20 19 19
44 45 46 47 48 48 48 47 48 49 49 48 47 47 48 47 48 47 46 46 46 45 44 43 41 40 37 36 35 33 31 28 27 25 23 22 21 19
43 44 45 47 48 49 49 49 49 49 49 50 49 49 50 49 49 48 48 48 47 47 46 45 43 42 40 39 37 34 33 31 29 27 25 23 22 21
42 43 44 45 47 48 49 50 50 50 50 50 52 51 51 50 50 49 49 49 48 48 47 46 45 44 43 41 38 36 34 32 30 29 27 25 24 22
40 42 44 45 46 48 48 49 51 51 51 51 52 53 54 53 52 50 51 51 50 50 49 48 47 46 45 43 41 39 36 34 33 31 29 27 26 25
37 39 41 44 46 47 48 49 51 52 52 52 52 53 55 54 55 52 50 51 52 52 51 50 49 48 47 45 43 41 38 36 35 33 31 30 28 27
34 36 38 41 44 46 47 48 50 52 53 53 54 54 56 55 55 56 53 52 52 52 52 51 50 49 48 47 45 42 40 38 37 35 33 31 30 28
30 32 34 37 41 44 45 46 48 50 52 53 53 54 55 56 56 56 56 54 53 53 52 52 51 50 49 48 46 43 41 39 38 36 35 32 31 30
27 29 31 33 36 39 43 45 46 48 50 51 52 53 54 54 55 56 56 54 52 52 52 51 52 51 50 48 47 45 43 40 39 38 36 34 32 31
22 24 27 29 32 35 38 41 44 46 47 49 50 51 52 54 55 56 56 55 54 52 52 52 51 51 50 49 47 46 44 42 40 39 37 36 34 32
18 19 22 24 28 31 34 37 40 43 44 46 48 49 50 52 54 54 55 55 54 53 53 52 50 50 50 48 47 46 44 43 42 40 38 37 35 34
13 15 17 21 25 27 31 34 36 39 41 43 44 47 48 50 52 53 52 53 54 54 54 52 51 51 50 48 48 46 45 44 43 41 40 39 37 35
10 11 13 16 20 24 28 31 34 35 37 39 41 43 45 47 49 50 50 51 51 52 52 52 51 50 49 48 47 46 46 45 44 42 41 40 38 36
8 9 11 13 17 20 24 26 29 33 35 37 38 39 41 43 46 47 48 49 49 50 51 52 52 49 48 47 47 45 45 45 44 42 41 40 38 36
5 6 9 11 13 17 21 24 27 29 32 35 36 38 39 39 41 43 46 47 48 48 49 50 52 50 47 47 46 46 45 44 43 43 42 40 39 38
3 3 6 9 12 15 18 21 24 27 29 33 35 36 37 38 38 40 42 44 45 47 47 48 49 49 47 46 46 46 46 44 43 42 43 41 40 39
3 2 4 7 10 13 16 18 21 24 26 29 31 33 34 36 37 38 40 42 43 44 46 47 47 48 47 46 45 45 44 43 42 42 42 42 41 39
3 1 3 6 9 11 14 16 19 21 24 26 28 30 31 33 35 37 39 40 42 44 45 46 46 45 46 46 45 44 43 43 41 39 39 40 40 39
4 1 2 5 7 9 12 14 17 19 21 23 25 27 29 30 31 34 36 38 40 42 43 44 44 44 44 44 45 45 43 42 42 40 37 36 37 37

GEFSNE_500_meanwind_102.txt.gz
Wind_Speed
39 40 41 42 43 43 43 43 43 42 43 43 43 43 43 42 41 42 41 41 41 41 40 41 40 39 38 37 35 34 32 31 30 29 27 26 26 24
39 40 41 42 43 44 45 45 45 44 44 44 45 45 45 43 43 42 43 43 43 43 42 41 41 40 39 38 36 35 33 31 30 29 27 26 24 23
40 41 42 43 44 44 45 45 45 46 45 46 45 45 45 45 44 44 45 44 44 44 44 43 42 41 40 39 37 35 34 32 31 29 28 26 24 23
41 41 42 43 45 45 45 45 46 46 46 46 47 46 46 47 46 46 46 45 44 44 44 44 43 43 41 40 38 36 35 33 31 30 28 26 25 23
41 42 43 44 45 46 47 47 46 46 46 47 47 47 47 48 47 47 47 47 44 44 45 45 44 44 42 41 40 38 36 34 32 31 29 27 26 24
40 41 43 44 45 46 48 48 48 47 47 46 47 47 48 48 48 47 48 48 46 45 45 46 46 45 44 42 41 39 37 35 34 32 30 29 26 24
38 39 41 43 44 46 47 48 49 48 47 47 47 47 48 49 48 48 48 49 48 47 46 48 48 47 45 44 42 41 39 37 35 33 32 30 28 26
36 37 39 40 42 45 47 48 50 49 48 48 48 48 48 49 49 49 49 49 49 49 48 48 49 48 47 45 44 42 41 39 37 35 34 32 30 27
35 36 38 39 41 43 46 48 50 50 50 49 48 48 49 49 48 48 49 48 48 49 50 50 50 49 48 47 46 44 43 41 39 37 35 34 32 29
32 33 35 37 39 41 43 46 48 49 50 51 50 49 50 50 49 49 49 48 48 49 49 51 51 51 49 48 47 46 44 42 41 39 37 35 34 31
30 31 33 35 37 38 40 42 44 47 50 50 51 50 50 50 50 50 50 49 49 49 49 50 51 52 51 50 49 48 46 45 43 40 38 37 35 34
28 29 31 33 34 36 38 40 42 45 47 49 50 50 51 51 51 51 51 50 51 50 49 50 52 53 52 52 50 48 47 46 45 43 41 39 37 35
26 26 27 29 31 33 36 38 40 42 45 47 48 49 51 50 51 51 50 49 51 50 50 50 51 52 52 52 51 50 49 47 45 44 42 40 38 36
24 23 23 24 26 29 32 35 37 40 43 45 46 48 50 50 51 51 51 50 50 49 49 49 49 51 52 51 51 50 49 48 46 45 44 42 40 38
21 20 20 20 22 25 28 32 34 37 41 42 44 46 48 50 51 51 50 51 51 50 50 50 49 50 51 51 51 50 49 48 48 46 45 44 42 40
18 17 16 16 17 20 24 27 30 34 37 40 42 43 46 47 49 51 50 50 51 51 49 49 49 49 50 51 51 50 50 48 48 47 46 44 42 41
15 14 13 13 14 16 20 24 27 30 33 37 39 41 43 45 46 48 50 50 51 52 51 50 49 50 50 50 51 50 49 48 48 47 46 45 43 42
13 11 10 11 12 14 16 20 24 26 29 33 36 38 39 41 43 45 47 49 50 51 51 50 49 50 51 51 49 49 49 48 48 48 47 45 44 43
12 10 9 8 9 11 13 17 20 24 27 30 33 35 36 38 40 42 44 45 47 48 50 50 48 49 50 51 49 49 48 47 47 48 47 46 45 43
13 10 7 5 7 9 12 14 18 21 25 28 31 33 34 36 37 38 41 42 44 46 48 48 47 46 46 47 47 46 46 46 46 47 47 46 44 43
13 9 6 4 5 7 10 13 15 19 23 26 28 31 33 34 35 36 38 40 41 43 45 45 45 44 44 44 45 46 45 45 45 46 46 45 44 43
12 9 5 2 2 5 9 12 13 17 20 23 26 29 31 32 33 35 36 37 39 41 42 43 43 43 43 43 43 43 43 44 44 44 45 44 43 42
12 9 5 2 2 4 7 10 13 14 17 20 23 26 27 29 31 33 34 35 37 39 41 41 41 41 41 42 42 42 42 42 42 41 42 42 42 42

GEFSNE_500_meanwind_108.txt.gz
Wind_Speed
35 35 35 36 36 37 37 38 39 39 40 40 39 40 40 40 39 39 39 38 38 39 38 38 38 37 36 38 38 37 36 35 34 33 32 30 28 27
35 36 36 37 37 38 38 39 40 40 40 41 41 41 42 41 40 40 40 40 39 39 39 39 39 39 37 38 38 38 38 36 35 34 32 31 29 28
35 36 36 37 38 39 39 40 40 41 41 42 43 43 42 42 41 42 42 41 41 40 40 39 39 40 40 39 39 39 38 38 37 35 33 31 30 29
35 36 37 38 39 40 40 41 41 41 42 42 43 44 44 43 42 43 43 41 42 42 41 40 40 40 41 41 40 40 39 38 37 36 34 32 31 29
35 36 37 38 39 40 41 41 42 42 41 42 43 44 44 44 43 43 43 43 42 42 42 42 41 40 41 42 42 41 40 39 38 37 35 33 31 30
34 35 36 38 39 40 41 41 42 42 43 43 43 44 45 44 45 44 44 44 44 43 43 43 42 42 43 43 43 42 41 40 39 38 36 34 32 30
33 34 35 37 38 39 40 41 42 43 43 44 44 44 44 44 45 45 44 44 45 45 44 45 44 44 44 44 43 43 42 41 40 39 38 35 33 31
32 32 33 34 35 37 39 40 42 42 42 43 44 45 45 45 45 45 45 44 45 46 45 45 45 44 45 46 45 44 42 42 41 39 38 36 34 33
32 32 32 33 34 35 36 38 40 41 42 42 43 44 44 45 45 45 46 45 45 45 46 45 44 45 46 46 45 45 44 44 42 40 39 37 35 34
31 31 31 32 33 34 35 36 38 39 41 42 43 44 45 45 45 45 45 45 44 45 45 45 45 45 46 47 46 46 45 45 44 42 40 39 38 36
30 30 30 31 32 33 34 35 36 38 40 41 42 43 46 46 47 46 45 45 44 43 45 45 46 46 45 46 47 47 46 46 45 43 42 40 39 38
29 29 28 29 30 31 32 33 34 36 39 40 41 42 44 46 46 46 44 43 43 43 44 44 44 45 46 47 47 47 48 47 46 45 43 42 41 40
29 28 28 28 28 29 30 31 32 34 36 37 39 41 43 44 45 46 45 44 44 43 43 44 44 44 45 46 47 47 48 48 47 46 44 43 42 41
28 27 27 26 26 25 26 28 29 30 32 34 36 38 40 41 43 45 45 44 44 44 43 43 44 44 44 45 45 46 48 49 48 47 46 45 44 42
27 26 25 24 23 22 23 24 26 27 28 31 33 34 36 37 40 43 45 44 45 45 44 44 43 43 44 44 44 45 46 47 48 48 48 46 45 44
26 25 24 23 21 20 20 20 22 23 25 27 29 32 34 35 38 41 43 44 44 44 44 44 44 44 42 43 43 44 45 46 47 48 47 47 45 44
25 24 22 21 19 18 18 17 18 20 22 24 26 28 31 33 35 37 40 42 43 43 43 44 44 43 43 42 42 44 44 44 44 45 46 46 45 45
25 23 21 19 17 15 15 15 16 16 18 22 24 27 28 30 32 34 37 39 40 41 42 42 43 42 42 42 42 42 42 43 44 44 45 44 44 43
23 22 20 18 16 14 13 13 13 14 16 19 22 24 27 28 29 31 34 36 37 39 40 40 41 41 41 40 41 41 41 42 43 43 43 44 43 42
22 21 19 17 15 13 12 11 12 13 15 17 20 22 24 26 28 30 31 33 35 36 38 39 39 40 40 39 40 40 40 40 41 42 42 43 43 42
22 20 18 16 14 12 11 10 10 11 13 15 18 19 21 23 26 29 31 32 34 35 36 37 38 39 39 39 39 40 40 39 39 40 41 41 41 41
20 19 17 15 13 12 11 10 9 9 11 13 16 18 20 22 24 26 29 30 31 33 35 36 37 38 39 38 38 38 39 40 41 40 41 41 41 40
19 18 17 15 13 11 10 8 7 8 9 11 14 17 19 20 23 25 27 28 29 31 32 33 35 37 38 38 36 36 37 38 39 40 41 41 41 41

GEFSNE_500_meanwind_114.txt.gz
Wind_Speed
29 29 30 31 32 33 34 35 36 36 38 39 40 41 42 41 42 41 41 41 40 40 40 41 41 41 40 40 41 40 40 39 38 36 35 34 32 31
30 30 31 32 33 34 34 35 36 38 38 39 40 42 42 42 43 43 41 41 42 41 41 42 42 42 41 41 41 41 40 40 39 37 36 35 34 33
30 31 31 32 33 34 35 36 37 38 39 40 41 42 43 43 43 43 43 43 44 43 43 43 43 42 42 42 43 42 42 41 40 38 37 36 36 34
30 31 32 32 32 34 35 37 38 39 40 40 42 43 43 44 44 44 44 44 45 45 45 45 44 43 43 42 42 42 43 42 41 40 38 37 37 36
30 31 31 32 33 34 35 36 38 39 40 41 42 43 44 45 45 45 45 45 44 46 46 46 45 44 43 43 42 41 42 43 42 41 40 39 38 37
31 31 31 32 33 34 35 36 37 38 40 41 42 43 44 45 46 46 46 46 45 46 46 46 47 46 45 44 43 43 42 43 43 43 41 40 39 38
31 31 31 32 32 33 34 35 36 37 39 40 41 43 44 45 45 46 47 47 47 47 47 47 47 48 47 46 45 44 43 43 43 43 42 41 40 39
31 31 31 31 32 33 33 35 36 37 38 40 41 42 44 45 46 46 47 47 48 48 49 48 48 48 48 47 46 45 45 44 43 43 42 41 41 40
31 31 31 32 32 33 33 33 35 36 37 39 40 41 43 45 46 47 47 48 48 49 49 48 49 49 49 48 48 48 47 45 44 44 43 42 42 41
31 31 31 31 32 32 32 32 33 34 36 37 38 40 42 44 45 46 47 48 48 49 50 49 49 49 49 49 48 48 48 47 46 46 45 44 44 42
31 31 31 31 31 31 31 31 32 33 34 35 36 38 40 42 44 45 46 47 48 49 49 49 49 49 50 49 49 49 49 48 47 47 47 46 46 44
32 32 32 31 30 29 29 29 29 30 32 33 35 36 39 41 43 44 45 46 46 47 49 49 49 49 50 51 50 50 49 49 48 48 47 47 47 46
31 31 31 30 29 28 27 27 27 28 29 31 33 35 37 39 41 43 44 45 46 47 48 48 48 49 49 49 50 50 50 50 49 48 47 48 48 48
31 31 30 30 28 27 26 26 26 26 27 28 30 32 34 37 40 41 42 42 44 46 47 48 47 48 48 48 49 50 50 49 49 48 48 48 49 49
31 31 30 29 27 26 25 25 24 24 25 26 26 28 30 33 37 39 40 40 42 44 45 46 46 47 47 46 47 48 49 49 49 48 49 49 49 50
31 30 29 28 26 25 24 24 23 22 23 23 24 25 27 29 33 36 38 39 40 42 44 45 45 46 46 45 45 47 48 48 48 48 49 50 51 50
31 30 29 27 26 24 23 22 21 21 21 21 21 22 23 26 29 33 36 37 39 41 42 45 46 46 45 45 44 44 45 46 47 47 48 51 52 51
30 29 28 26 24 23 22 21 19 19 19 19 19 20 21 23 26 30 32 35 37 39 41 42 45 46 45 44 43 43 44 45 46 46 47 49 51 51
29 28 26 25 23 23 21 20 19 18 17 17 18 19 20 22 23 25 28 32 35 38 39 40 42 44 44 43 42 43 43 42 43 45 46 47 48 49
29 27 25 24 23 22 20 19 18 16 16 16 16 18 19 20 22 23 25 28 31 35 37 38 40 42 43 43 42 41 42 41 42 43 44 46 46 48
28 26 25 24 23 21 20 18 16 15 14 14 14 16 17 18 20 22 24 26 28 31 34 36 38 40 42 42 41 41 40 40 41 41 42 44 45 46
26 26 24 23 22 20 18 17 15 13 13 13 13 14 16 17 20 22 24 25 27 30 32 35 37 38 39 40 40 40 40 40 40 39 40 42 43 44
25 25 23 21 20 18 17 16 14 13 12 12 12 13 14 17 18 20 23 25 27 29 31 33 35 36 37 38 39 38 38 38 39 40 40 41 41 42